Regional Weather Roundup
Issued by NWS

Home | Current Version | Previous Version | Text Only | Print | Product List | Glossary On
Versions: 1 2 3 4 5 6 7 8 9 10 11 12 13 14 15 16 17 18 19 20 21 22 23 24 25 26 27 28 29 30 31 32 33 34 35 36 37 38 39 40 41 42 43 44 45 46 47 48 49 50
000
ASUS43 KMKX 010100
RWRWI

WISCONSIN REGIONAL WEATHER ROUNDUP
NATIONAL WEATHER SERVICE MILWAUKEE/SULLIVAN WI
800 PM CDT MON AUG 31 2015

NOTE: "FAIR" INDICATES FEW OR NO CLOUDS BELOW 12,000 FEET WITH NO
SIGNIFICANT WEATHER AND/OR OBSTRUCTIONS TO VISIBILITY.

WIZ001-002-006>008-014>016-023>028-010200-
NORTHWEST WISCONSIN

CITY           SKY/WX    TMP DP  RH WIND       PRES   REMARKS
SUPERIOR ARPT  CLEAR     75  70  85 S5        29.84S
ASHLAND        CLEAR     74  70  87 S9        29.88R
HAYWARD        CLEAR     74  69  85 S8        29.92R
SIREN          CLEAR     77  69  76 S6        29.89S
CUMBERLAND     PTCLDY    73  70  88 S6        29.92S
RICE LAKE      CLEAR     75  70  85 SE7       29.93S
CHETEK         CLEAR    N/A N/A N/A SE5       29.92F
LADYSMITH      CLEAR     74  70  86 SE3       29.96S
EAU CLAIRE     CLEAR     76  70  82 S6        29.92S
MENOMONIE      CLEAR     77  71  82 SE7       29.92S
NEW RICHMOND   PTCLDY    78  70  76 S6        29.91R HX  80
OSCEOLA        PTCLDY    77  71  80 S6        29.92S
$$

WIZ003>005-009-010-017-018-010200-
NORTH CENTRAL WISCONSIN

CITY           SKY/WX    TMP DP  RH WIND       PRES   REMARKS
MANITOWISH WTR CLEAR     70  67  89 S6        29.97R
ARBOR VITAE    CLEAR     72  68  87 SW6       29.98S
WOODRUFF       CLEAR     72  68  87 SW6       29.98S
RHINELANDER    CLEAR     70  65  84 S3        29.99F
EAGLE RIVER    CLEAR     70  62  75 SW6       29.98R
LAND O LAKES   CLEAR     72  64  75 SW6       29.98R
PHILLIPS       CLEAR     71  67  88 S6        29.96S
TOMAHAWK       CLEAR     67  65  91 CALM      29.98F FOG
MEDFORD        CLEAR     69  68  95 S6        29.98S
MERRILL        CLEAR     71  69  92 S3        29.99S
$$

WIZ029-030-035-036-043>047-010200-
CENTRAL WISCONSIN

CITY           SKY/WX    TMP DP  RH WIND       PRES   REMARKS
WAUSAU         CLEAR     72  68  87 CALM      29.97F
MOSINEE        NOT AVBL
MARSHFIELD     CLEAR     71  66  84 S6        29.98S
STEVENS POINT  CLEAR     72  67  84 S3        29.99S
WAUPACA        CLEAR     75  71  89 CALM      29.99R
WAUTOMA        NOT AVBL
WISC RAPIDS    CLEAR     72  67  84 S3        29.99S
CAMP DOUGLAS   NOT AVBL
$$

WIZ011>013-019>022-031-037>040-048>050-010200-
NORTHEAST WISCONSIN

CITY           SKY/WX    TMP DP  RH WIND       PRES   REMARKS
ANTIGO         CLEAR     68  65  90 S5        30.01S
SHAWANO        CLEAR     75  69  82 CALM      29.98S
OCONTO         CLEAR     70  70 100 CALM      29.97S
STURGEON BAY   CLEAR     68  64  88 S6        30.02R
GREEN BAY      CLEAR     70  68  93 S5        29.99R
MANITOWOC      NOT AVBL
APPLETON       PTCLDY    72  66  83 VRB5      29.99R
CLINTONVILLE   CLEAR     73  68  83 S3        29.98S
OSHKOSH        CLEAR     70  67  90 S5        30.00R
$$

WIZ032>034-041-042-053>061-010200-
SOUTHWEST WISCONSIN

CITY           SKY/WX    TMP DP  RH WIND       PRES   REMARKS
LA CROSSE      CLEAR     78  70  76 SE8       29.93S HX  80
SPARTA         CLEAR     76  67  74 SE5       29.96F
VIROQUA          N/A     75  70  85 SE5       29.98F
BOSCOBEL       CLEAR     78  71  79 CALM      29.97S HX  80
PRAIRIE DU CHI CLEAR     78  70  75 E6        29.95F HX  81
PLATTEVILLE    CLEAR     76  72  86 SE7       29.99F
$$

WIZ056-057-062-063-064-067-068-010200-
SOUTH CENTRAL WISCONSIN

CITY           SKY/WX    TMP DP  RH WIND       PRES   REMARKS
REEDSBURG      CLEAR     76  69  79 CALM      29.98F
BARABOO/DELLS  CLEAR     74  66  76 S3        29.99F
LONE ROCK      NOT AVBL
MINERAL POINT  NOT AVBL
MADISON        CLEAR     73  68  84 CALM      30.00S
MIDDLETON      CLEAR     77  67  71 SW3       30.01S
WATERTOWN      CLEAR     73  73 100 CALM      30.01R
MONROE         CLEAR     77  68  73 S5        30.01S
JANESVILLE     CLEAR     79  70  73 CALM      30.00S HX  81
$$

WIZ051-052-058>065-066-070>072-010200-
SOUTHEAST WISCONSIN

CITY           SKY/WX    TMP DP  RH WIND       PRES   REMARKS
MILWAUKEE      MOCLDY    71  66  84 S8        30.02R
WAUKESHA       NOT AVBL
MILWAUKEE/TIMM CLEAR     75  64  69 CALM      30.02R
RACINE         LGT RAIN  70  65  84 S6        30.04R
BURLINGTON     CLEAR     71  68  90 CALM      30.02S
KENOSHA        CLEAR     72  66  81 SE6       30.03R
FOND DU LAC    CLEAR     71  68  90 S5        30.00S
SHEBOYGAN      CLEAR     68  65  90 S5        30.01S
WEST BEND      CLEAR     72  66  83 CALM      30.02R
JUNEAU         CLEAR     74  68  81 S5        30.02S
$$

LSZ147-162-010200-
LAKE SUPERIOR

STATION/POSITION TIME  TEMP    WIND        PRES    WAVE
                       AIR SEA DIR/SP/G            HT/PER
                 (UTC) (F)     (DEG/KT/KT) (MB)    (FT/S)
W MID LAKE BUOY  2350   64 57  220/ 12/ 12 1010.5R   0
DEVILS ISLAND    0000   75     210/ 14/ 16 1010.4R
PORT WING        0040   76     180/  5/  6 1011.2R
SAXON HARBOR     0000   77     200/  7/ 14 1010.8S
$$

LMZ867-665-643>646-010200-
LAKE MICHIGAN

STATION/POSITION TIME  TEMP    WIND        PRES    WAVE
                       AIR SEA DIR/SP/G            HT/PER
                 (UTC) (F)     (DEG/KT/KT) (MB)    (FT/S)
CHAMBERS ISLAND  0000   72     180/  6/ 12 1014.6S
S GREEN BAY BUOY 0000   69 64  200/  8/ 10 1016.3F
N MID LAKE BUOY  2350   65 65  200/ 14/ 17 1014.8F   2/ 5
NORTHPORT PIER   0000   65     170/  5/  9 1014.6F
KEWAUNEE LAKESHO 0000   53     170/ 11/ 11 1014.8S
SHEBOYGAN LAKESH 0000   67     190/ 13/ 14 1016.4R
PORT WASHINGTON  0000   60     190/  1/  3 1016.9
ATWATER BUOY     0000   59 53  170/  6/  8 1017.5F
MILWAUKEE LAKESH 0010   63     140/ 10/ 11   N/A
S MID LAKE BUOY  2350   70 70  140/  6/  6 1016.3F   0
KENOSHA   LAKESH 0000   68     180/  7/  8 1015.9F
$$

TC  - TEMPERATURE IN CELSIUS
VSB - VISIBILITY IN STATUTE MILES
WCI - WIND CHILL INDEX
HX  - HEAT INDEX




USA.gov is the U.S. government's official web portal to all federal, state and local government web resources and services.